When you browse on this site, cookies collect data to enhance your experience and personalize the content and advertising you see.
Visit our Privacy Policy to learn more. By continuing to use the site, you agree to this use of cookies and data.
  • Em Portugal
  • Lista de países
  • Para 7 dias
  • Temperatura da água
  • Mapas de satélite
  • Mapa do tempo
  • Widgets de tempo
  • user-avatar
    Iniciar Sessão

    Previsão horária em Zagornyy

    Hoje, 24 Junho, Segunda-feira

    Tempo Temperatura Precipitação Vento Pressão Humidade
    00:00 +19°C° 0.5 mm 3 m/s 755 mmHg 94%
    01:00 +18°C° 0.8 mm 3 m/s 755 mmHg 93%
    02:00 +17°C° 0.8 mm 3 m/s 755 mmHg 92%
    03:00 +15°C° 0 mm 4 m/s 755 mmHg 91%
    04:00 +17°C° 0.3 mm 3 m/s 755 mmHg 91%
    05:00 +17°C° 0.3 mm 3 m/s 755 mmHg 90%
    06:00 +17°C° 0.3 mm 2 m/s 755 mmHg 90%
    07:00 +18°C° 0.1 mm 2 m/s 755 mmHg 85%
    08:00 +19°C° 0.1 mm 2 m/s 756 mmHg 80%
    09:00 +20°C° 0 mm 2 m/s 756 mmHg 73%
    10:00 +21°C° 0 mm 2 m/s 756 mmHg 68%
    11:00 +24°C° 0 mm 3 m/s 756 mmHg 63%
    12:00 +25°C° 0 mm 3 m/s 756 mmHg 58%
    13:00 +25°C° 0 mm 3 m/s 756 mmHg 56%
    14:00 +26°C° 0 mm 3 m/s 756 mmHg 54%
    15:00 +26°C° 0 mm 3 m/s 756 mmHg 55%
    16:00 +26°C° 0 mm 3 m/s 756 mmHg 58%
    17:00 +25°C° 0 mm 3 m/s 756 mmHg 61%
    18:00 +25°C° 0 mm 3 m/s 755 mmHg 64%
    19:00 +22°C° 0 mm 3 m/s 756 mmHg 66%
    20:00 +20°C° 0 mm 3 m/s 756 mmHg 69%
    21:00 +18°C° 0 mm 4 m/s 757 mmHg 72%
    22:00 +17°C° 0 mm 3 m/s 757 mmHg 71%
    23:00 +17°C° 0 mm 3 m/s 757 mmHg 71%

    Amanhã, 25 Junho, Terça-feira

    Tempo Temperatura Precipitação Vento Pressão Humidade
    00:00 +16°C° 0 mm 3 m/s 757 mmHg 70%
    01:00 +14°C° 0 mm 3 m/s 757 mmHg 71%
    02:00 +13°C° 0 mm 3 m/s 758 mmHg 72%
    03:00 +13°C° 0 mm 2 m/s 758 mmHg 73%
    04:00 +12°C° 0 mm 3 m/s 758 mmHg 73%
    05:00 +13°C° 0 mm 3 m/s 758 mmHg 74%
    06:00 +14°C° 0 mm 4 m/s 759 mmHg 74%
    07:00 +15°C° 0 mm 4 m/s 759 mmHg 69%
    08:00 +18°C° 0 mm 4 m/s 759 mmHg 65%
    09:00 +19°C° 0 mm 4 m/s 760 mmHg 60%
    10:00 +20°C° 0 mm 4 m/s 759 mmHg 57%
    11:00 +21°C° 0 mm 4 m/s 759 mmHg 53%
    12:00 +22°C° 0 mm 4 m/s 759 mmHg 49%
    13:00 +22°C° 0 mm 4 m/s 759 mmHg 49%
    14:00 +22°C° 0 mm 4 m/s 759 mmHg 48%
    15:00 +22°C° 0 mm 4 m/s 759 mmHg 48%
    16:00 +22°C° 0 mm 3 m/s 759 mmHg 52%
    17:00 +21°C° 0 mm 3 m/s 759 mmHg 57%
    18:00 +21°C° 0 mm 3 m/s 759 mmHg 62%
    19:00 +19°C° 0 mm 3 m/s 759 mmHg 65%
    20:00 +17°C° 0 mm 3 m/s 760 mmHg 69%
    21:00 +15°C° 0 mm 2 m/s 760 mmHg 72%
    22:00 +15°C° 0 mm 2 m/s 760 mmHg 75%
    23:00 +14°C° 0 mm 2 m/s 760 mmHg 78%

    Depois de amanhã, 26 Junho, Quarta-feira

    Tempo Temperatura Precipitação Vento Pressão Humidade
    00:00 +13°C° 0 mm 2 m/s 760 mmHg 81%
    01:00 +12°C° 0 mm 2 m/s 760 mmHg 82%
    02:00 +12°C° 0 mm 2 m/s 760 mmHg 84%
    03:00 +10°C° 0 mm 2 m/s 760 mmHg 85%
    04:00 +12°C° 0 mm 2 m/s 760 mmHg 83%
    05:00 +13°C° 0 mm 2 m/s 760 mmHg 81%
    06:00 +14°C° 0 mm 2 m/s 760 mmHg 79%
    07:00 +15°C° 0 mm 2 m/s 760 mmHg 72%
    08:00 +17°C° 0 mm 3 m/s 760 mmHg 65%
    09:00 +19°C° 0 mm 3 m/s 760 mmHg 58%
    10:00 +19°C° 0 mm 3 m/s 759 mmHg 55%
    11:00 +20°C° 0 mm 3 m/s 759 mmHg 52%
    12:00 +21°C° 0 mm 3 m/s 758 mmHg 49%
    13:00 +21°C° 0 mm 3 m/s 758 mmHg 51%
    14:00 +21°C° 0 mm 3 m/s 758 mmHg 54%
    15:00 +21°C° 0 mm 3 m/s 757 mmHg 56%
    16:00 +20°C° 0.2 mm 3 m/s 757 mmHg 63%
    17:00 +19°C° 0.2 mm 3 m/s 756 mmHg 69%
    18:00 +18°C° 0.2 mm 3 m/s 756 mmHg 76%
    19:00 +17°C° 0.1 mm 2 m/s 755 mmHg 80%
    20:00 +17°C° 0.1 mm 2 m/s 755 mmHg 84%
    21:00 +16°C° 0.1 mm 2 m/s 755 mmHg 87%
    22:00 +15°C° 0.1 mm 2 m/s 754 mmHg 89%
    23:00 +14°C° 0.1 mm 3 m/s 754 mmHg 91%

    27 Junho, Quinta-feira

    Tempo Temperatura Precipitação Vento Pressão Humidade
    00:00 +14°C° 0.1 mm 3 m/s 753 mmHg 92%
    01:00 +13°C° 0.4 mm 3 m/s 753 mmHg 94%
    02:00 +14°C° 0.4 mm 2 m/s 753 mmHg 95%
    03:00 +14°C° 0.4 mm 2 m/s 752 mmHg 97%
    04:00 +14°C° 0.4 mm 2 m/s 752 mmHg 96%
    05:00 +14°C° 0.4 mm 2 m/s 751 mmHg 96%
    06:00 +14°C° 0.4 mm 1 m/s 751 mmHg 96%
    07:00 +15°C° 0.1 mm 2 m/s 750 mmHg 95%
    08:00 +15°C° 0.1 mm 2 m/s 749 mmHg 94%
    09:00 +16°C° 0.1 mm 3 m/s 749 mmHg 92%
    10:00 +14°C° 0.7 mm 3 m/s 748 mmHg 94%
    11:00 +14°C° 0.7 mm 4 m/s 748 mmHg 95%
    12:00 +14°C° 0.7 mm 4 m/s 747 mmHg 96%
    13:00 +14°C° 1.3 mm 5 m/s 746 mmHg 96%
    14:00 +15°C° 1.3 mm 5 m/s 746 mmHg 96%
    15:00 +15°C° 1.3 mm 6 m/s 745 mmHg 96%
    16:00 +16°C° 2 mm 6 m/s 744 mmHg 96%
    17:00 +16°C° 2 mm 6 m/s 744 mmHg 96%
    18:00 +17°C° 2 mm 5 m/s 743 mmHg 96%
    19:00 +17°C° 1.1 mm 5 m/s 742 mmHg 96%
    20:00 +17°C° 1.1 mm 5 m/s 742 mmHg 96%
    21:00 +17°C° 1.1 mm 5 m/s 741 mmHg 96%
    22:00 +17°C° 0.8 mm 5 m/s 740 mmHg 96%
    23:00 +17°C° 0.8 mm 5 m/s 740 mmHg 96%

    28 Junho, Sexta-feira

    Tempo Temperatura Precipitação Vento Pressão Humidade
    00:00 +17°C° 0.8 mm 5 m/s 739 mmHg 96%
    01:00 +17°C° 1.4 mm 6 m/s 739 mmHg 96%
    02:00 +17°C° 1.4 mm 6 m/s 738 mmHg 96%
    03:00 +16°C° 1.4 mm 6 m/s 738 mmHg 96%
    04:00 +16°C° 1.5 mm 6 m/s 738 mmHg 96%
    05:00 +16°C° 1.5 mm 5 m/s 737 mmHg 96%
    06:00 +15°C° 1.5 mm 5 m/s 737 mmHg 97%
    07:00 +15°C° 0.9 mm 5 m/s 737 mmHg 95%
    08:00 +15°C° 0.9 mm 5 m/s 737 mmHg 94%
    09:00 +15°C° 0.9 mm 4 m/s 737 mmHg 93%
    10:00 +17°C° 0.1 mm 4 m/s 737 mmHg 88%
    11:00 +17°C° 0.1 mm 4 m/s 737 mmHg 82%
    12:00 +17°C° 0.1 mm 5 m/s 738 mmHg 77%
    13:00 +17°C° 0.4 mm 5 m/s 738 mmHg 76%
    14:00 +19°C° 0.4 mm 5 m/s 738 mmHg 76%
    15:00 +19°C° 0.4 mm 6 m/s 738 mmHg 76%
    16:00 +19°C° 0.1 mm 5 m/s 738 mmHg 75%
    17:00 +17°C° 0.1 mm 5 m/s 738 mmHg 74%
    18:00 +17°C° 0.1 mm 5 m/s 738 mmHg 74%
    19:00 +17°C° 0 mm 4 m/s 738 mmHg 79%
    20:00 +14°C° 0 mm 4 m/s 738 mmHg 85%
    21:00 +13°C° 0 mm 3 m/s 738 mmHg 90%
    22:00 +12°C° 0 mm 3 m/s 738 mmHg 92%
    23:00 +12°C° 0 mm 4 m/s 738 mmHg 93%

    29 Junho, Sábado

    Tempo Temperatura Precipitação Vento Pressão Humidade
    00:00 +11°C° 0 mm 4 m/s 739 mmHg 95%
    01:00 +11°C° 0 mm 4 m/s 739 mmHg 93%
    02:00 +12°C° 0 mm 4 m/s 739 mmHg 90%
    03:00 +12°C° 0 mm 4 m/s 739 mmHg 88%
    04:00 +12°C° 0 mm 4 m/s 739 mmHg 89%
    05:00 +12°C° 0 mm 4 m/s 739 mmHg 89%
    06:00 +12°C° 0 mm 5 m/s 739 mmHg 89%
    07:00 +13°C° 0 mm 4 m/s 739 mmHg 86%
    08:00 +14°C° 0 mm 4 m/s 740 mmHg 83%
    09:00 +14°C° 0 mm 4 m/s 740 mmHg 81%
    10:00 +15°C° 0.5 mm 4 m/s 740 mmHg 79%
    11:00 +17°C° 0.5 mm 4 m/s 740 mmHg 78%
    12:00 +18°C° 0.5 mm 3 m/s 740 mmHg 77%
    13:00 +18°C° 0.4 mm 3 m/s 740 mmHg 74%
    14:00 +19°C° 0.4 mm 3 m/s 740 mmHg 72%
    15:00 +19°C° 0.4 mm 3 m/s 740 mmHg 70%
    16:00 +19°C° 0.1 mm 3 m/s 741 mmHg 70%
    17:00 +19°C° 0.1 mm 3 m/s 741 mmHg 71%
    18:00 +19°C° 0.1 mm 3 m/s 741 mmHg 72%
    19:00 +17°C° 0.2 mm 2 m/s 741 mmHg 78%
    20:00 +15°C° 0.2 mm 2 m/s 742 mmHg 84%
    21:00 +14°C° 0.2 mm 2 m/s 742 mmHg 90%
    22:00 +13°C° 0 mm 2 m/s 742 mmHg 91%
    23:00 +12°C° 0 mm 2 m/s 742 mmHg 92%
    Mostrar mais